Location: Unspecified
(44.4377°N, 88.0525°W)
Time: 03:46:47
(UTC-06:00)

CZ-3 Stage 3 - Pass Details

Date: 28 January 2021
Orbit: 398 x 34787 km, 30.8° (Epoch: 27 February)

Event Time Altitude Azimuth Distance (km) Brightness Sun altitude
Rises 13:30:42 0° 179° (S) 3,802 7.2 24.6°
Reaches altitude 10° 13:33:24 10° 159° (SSE) 3,667 6.8 24.4°
Maximum altitude 13:40:53 20° 114° (ESE) 5,216 6.9 23.9°
Drops below altitude 10° 14:08:50 10° 78° (ENE) 14,019 8.6 21.5°
Sets 22:00:36 0° 126° (SE) 25,542 9.9 -52.8°
